Location: Bjelajci
(45.0103°N, 16.1758°E)
Time: 19:22:36
(UTC+00:00)

ADEOS II - Pass Details

Date: 14 July 2020
Orbit: 799 x 801 km, 98.5° (Epoch: 05 August)

Event Time Altitude Azimuth Distance (km) Brightness Sun altitude
Rises 01:17:20 0° 14° (NNE) 3,320 6.7 -16.5°
Reaches altitude 10° 01:19:41 10° 16° (NNE) 2,385 5.7 -16.3°
Maximum altitude 01:24:58 79° 103° (ESE) 819 2.1 -15.8°
Enters shadow 01:28:37 20° 189° (S) 1,754 3.3 -15.4°
